[[{"header":{"parameterUnit":"m.s-1","parameterCategory":2,"la1":30.2991,"la2":30.254,"lo1":-89.0895,"lo2":-89.0444,"dy":0.0017,"dx":0.0017,"nx":28,"ny":28,"refTime":"2025-02-01T03:00:00:Z","depth":"0","parameterNumber":2,"parameterNumberName":"U-component_of_CURRENTS"},"data":[0,0,0,0,0,0,0,0,0,0,0,0,0,0,0,0,0,0,0,0,0,0,0,0,0,0,0,0,0,0,0,0,0,0,0,0,0,0,0,0,0,0,0,0,0,0,0,0,0,0,0,0,0,0,0,0,0,0,0.0823,0.0823,0,0.0838,0.0838,0.0838,0.0832,0.0832,0.0831,0.0831,0.0828,0.0829,0.0829,0,0,0,0,0,0,0,0,0,0,0,0,0,0.0737,0.0738,0.0822,0.0823,0.0823,0.0838,0.0838,0.0838,0.0832,0.0832,0.0831,0.0831,0.0828,0.0828,0.0829,0,0,0,0,0,0,0,0,0,0,0,0,0,0.0764,0.0739,0.0822,0.0823,0.0823,0.0838,0.0838,0.0838,0.0832,0.0832,0.0831,0.0831,0.0828,0.0828,0.0829,0.0836,0,0,0.0829,0.0829,0,0,0,0,0,0,0,0,0.0762,0.0767,0.0823,0.0823,0.0824,0.0834,0.0807,0.0837,0.0832,0.0827,0.0831,0.0831,0.083,0.083,0.0831,0.0836,0.0836,0.0829,0.0829,0.0829,0.0829,0,0,0,0,0,0,0,0.076,0.0766,0.0827,0.0823,0.0824,0.0805,0.0809,0.0812,0.0828,0.0827,0.0827,0.0832,0.083,0.0831,0.0831,0.0836,0.0829,0.0829,0.083,0.083,0.0849,0.0849,0,0,0,0,0,0,0.0765,0.0765,0.0826,0.0828,0.0793,0.0807,0.0812,0.083,0.0829,0.0829,0.0832,0.0832,0.0831,0.0831,0.0831,0.0853,0.0829,0.083,0.083,0.0849,0.0849,0.0849,0,0,0,0,0,0,0.0764,0.0771,0.0826,0.0796,0.0802,0.081,0.083,0.083,0.0833,0.0833,0.0832,0.0835,0.0831,0.0831,0.0834,0.0852,0.083,0.083,0.0848,0.0849,0.0849,0.0888,0,0,0,0,0,0,0.0761,0.0771,0.0779,0.0798,0.0804,0.0835,0.083,0.0831,0.0837,0.0837,0.0835,0.0835,0.0831,0.0833,0.0834,0.0852,0.083,0.0848,0.0848,0.0849,0.0886,0.089,0.0893,0,0,0,0,0,0.0758,0.0771,0.0779,0.0786,0.0818,0.0835,0.0837,0.0839,0.0838,0.084,0.0838,0.0835,0.0839,0.0834,0.0834,0.0853,0.0847,0.0848,0.0849,0.0885,0.0889,0.0893,0,0,0,0,0,0,0.0727,0.0773,0.0782,0.0805,0.082,0.0835,0.0834,0.0842,0.0843,0.0841,0.0839,0.0838,0.085,0.0842,0.0837,0.0859,0.0843,0.0844,0.087,0.0874,0.0877,0.0891,0.083,0,0,0,0,0,0.0728,0.0754,0.0785,0.0799,0.0809,0.0823,0.0828,0.0836,0.0843,0.0844,0.0844,0.0845,0.0854,0.0856,0.0858,0.0869,0.0906,0.088,0.0884,0.0887,0.0898,0.0973,0.0986,0.0852,0.0852,0.0852,0,0,0.0713,0.0745,0.0755,0.0795,0.0804,0.0821,0.0825,0.0838,0.0851,0.0844,0.0852,0.0857,0.0859,0.0873,0.0878,0.0869,0.0946,0.0888,0.0891,0.09,0.0976,0.0989,0.1001,0.0853,0.0853,0.0853,0,0,0.0706,0.0732,0.0753,0.0771,0.08,0.0813,0.082,0.0842,0.085,0.0862,0.0866,0.0885,0.0883,0.09,0.0906,0.0929,0.0962,0.0926,0.0955,0.1029,0.1041,0.1052,0.1129,0.1147,0.0927,0.0927,0.0927,0,0.0683,0.0726,0.0755,0.078,0.0793,0.0813,0.083,0.0843,0.0861,0.0878,0.0865,0.0904,0.09,0.0944,0.0948,0.094,0.0989,0.0941,0.1036,0.1048,0.1059,0.1135,0.1154,0.0929,0.0928,0.0928,0.0928,0,0.07,0.0726,0.0736,0.0781,0.0796,0.0813,0.0842,0.086,0.0872,0.089,0.0932,0.0941,0.0971,0.0971,0.0963,0.1039,0.1052,0.1036,0.1032,0.1075,0.1152,0.1171,0.0931,0.0931,0.093,0.093,0,0,0.0665,0.0736,0.0736,0.0767,0.0802,0.0824,0.0847,0.0889,0.0927,0.0939,0.0997,0.1006,0.1028,0.1038,0.1047,0.11,0.1214,0.11,0.1103,0.1187,0.1395,0.1415,0.1438,0.1223,0.1226,0.1228,0.1422,0,0.0665,0.0722,0.0751,0.0788,0.0821,0.0848,0.0876,0.0914,0.0947,0.1005,0.1035,0.1085,0.105,0.1086,0.1132,0.1197,0.1265,0.1164,0.133,0.1335,0.1357,0.146,0.1447,0.1619,0.1441,0.1445,0.1447,0,0.0676,0.0717,0.0764,0.083,0.0844,0.0865,0.0936,0.0966,0.104,0.1068,0.1123,0.1158,0.124,0.1206,0.1348,0.129,0.1348,0.1392,0.14,0.1419,0.1392,0.1543,0.1661,0.1558,0.1477,0.1474,0.1472,0,0.0676,0.0727,0.0773,0.0791,0.086,0.0887,0.092,0.0986,0.1035,0.1128,0.1185,0.1267,0.1331,0.1414,0.1483,0.144,0.1648,0.1601,0.1678,0.168,0.1702,0.17,0.1748,0.1722,0.1721,0.1721,0.172,0,0.0689,0.0725,0.0778,0.0809,0.0863,0.09,0.0969,0.1015,0.11,0.1172,0.1227,0.1308,0.1388,0.15,0.155,0.1688,0.171,0.1723,0.1746,0.1714,0.1711,0.1644,0.1556,0.1728,0.1727,0.1725,0.1724,0,0.0708,0.0737,0.0797,0.0858,0.0875,0.0918,0.0996,0.1056,0.1124,0.1229,0.127,0.1379,0.1523,0.1614,0.1765,0.1787,0.1854,0.1943,0.19,0.1914,0.187,0.1784,0.181,0.1766,0.2083,0.2085,0.2087,0,0.0746,0.0773,0.0832,0.0864,0.0894,0.0952,0.0998,0.1063,0.1127,0.1266,0.1327,0.1488,0.1583,0.1818,0.192,0.2069,0.1937,0.2124,0.203,0.1905,0.1826,0.1691,0.1639,0.2084,0.2085,0.2086,0.2087,0,0.0816,0.0822,0.0872,0.0912,0.0957,0.0999,0.1064,0.111,0.1195,0.1277,0.1385,0.1473,0.1706,0.184,0.2035,0.212,0.1997,0.2152,0.2044,0.1863,0.17,0.1655,0.1909,0.2098,0.2097,0.2096,0.2095,0.2095,0.0878,0.0905,0.0943,0.0972,0.1007,0.1026,0.1052,0.1118,0.1188,0.129,0.1385,0.1504,0.1708,0.1981,0.2064,0.2165,0.2073,0.2114,0.2037,0.1925,0.1821,0.2099,0.2285,0.2285,0.2285,0.2285,0.2285,0,0.0949,0.0959,0.1,0.1016,0.1019,0.1031,0.1082,0.11,0.1146,0.1262,0.1342,0.1543,0.1718,0.1898,0.2063,0.2021,0.1957,0.1971,0.1763,0.1732,0.2029,0.1966,0.2062,0.2062,0.2063,0.2063,0.2063,0.2063,0.1,0.1032,0.1019,0.1011,0.1006,0.0999,0.1008,0.1038,0.1106,0.1205,0.1307,0.1411,0.1562,0.1698,0.1764,0.1792,0.1615,0.1594,0.152,0.1692,0.1697,0.1702,0.1622,0.1645,0.1645,0.1204,0.12,0.1197]},{"header":{"parameterUnit":"m.s-1","parameterCategory":2,"la1":30.2991,"la2":30.254,"lo1":-89.0895,"lo2":-89.0444,"dy":0.0017,"dx":0.0017,"nx":28,"ny":28,"refTime":"2025-02-01T03:00:00:Z","depth":"0","parameterNumber":3,"parameterNumberName":"V-component_of_CURRENTS"},"data":[0,0,0,0,0,0,0,0,0,0,0,0,0,0,0,0,0,0,0,0,0,0,0,0,0,0,0,0,0,0,0,0,0,0,0,0,0,0,0,0,0,0,0,0,0,0,0,0,0,0,0,0,0,0,0,0,0,0,-0.0465,-0.0463,0,-0.0313,-0.0311,-0.0309,-0.0242,-0.0242,-0.0242,-0.0242,-0.0196,-0.0195,-0.0194,0,0,0,0,0,0,0,0,0,0,0,0,0,-0.0694,-0.069,-0.0465,-0.0463,-0.0461,-0.0313,-0.0311,-0.0309,-0.0242,-0.0242,-0.0242,-0.0242,-0.0197,-0.0195,-0.0194,0,0,0,0,0,0,0,0,0,0,0,0,0,-0.0574,-0.0689,-0.0465,-0.0409,-0.0403,-0.0313,-0.0311,-0.0308,-0.0242,-0.0242,-0.0242,-0.0242,-0.0197,-0.0195,-0.0193,-0.0176,0,0,-0.0187,-0.0186,0,0,0,0,0,0,0,0,-0.0581,-0.0566,-0.0419,-0.0413,-0.0405,-0.0296,-0.0375,-0.0269,-0.0242,-0.0303,-0.0242,-0.0242,-0.0239,-0.0234,-0.0204,-0.0174,-0.0172,-0.0187,-0.0186,-0.0185,-0.0184,0,0,0,0,0,0,0,-0.0589,-0.0572,-0.0405,-0.0417,-0.0409,-0.0391,-0.0374,-0.0354,-0.0274,-0.0298,-0.0293,-0.0275,-0.0236,-0.0206,-0.0203,-0.0172,-0.0187,-0.0185,-0.0184,-0.0183,-0.0136,-0.0136,0,0,0,0,0,0,-0.0606,-0.0579,-0.041,-0.0401,-0.0495,-0.0386,-0.0368,-0.0331,-0.0272,-0.0262,-0.0275,-0.0272,-0.0209,-0.0205,-0.0201,-0.0163,-0.0185,-0.0183,-0.0182,-0.0136,-0.0136,-0.0136,0,0,0,0,0,0,-0.0611,-0.0592,-0.0416,-0.0488,-0.0464,-0.0382,-0.0342,-0.0328,-0.0298,-0.0253,-0.0245,-0.0259,-0.0209,-0.0204,-0.018,-0.0162,-0.0182,-0.018,-0.0136,-0.0136,-0.0136,-0.0097,0,0,0,0,0,0,-0.0618,-0.0594,-0.0575,-0.0488,-0.046,-0.0363,-0.0341,-0.0325,-0.0286,-0.0282,-0.0237,-0.0232,-0.0209,-0.0183,-0.0178,-0.0159,-0.0179,-0.0136,-0.0136,-0.0136,-0.0098,-0.0095,-0.0093,0,0,0,0,0,-0.0627,-0.0591,-0.0575,-0.0554,-0.0436,-0.0363,-0.0347,-0.0291,-0.0286,-0.0267,-0.024,-0.0234,-0.0179,-0.0181,-0.0175,-0.0155,-0.0136,-0.0136,-0.0136,-0.0099,-0.0096,-0.0093,0,0,0,0,0,0,-0.0675,-0.0578,-0.0559,-0.0494,-0.0439,-0.0351,-0.0323,-0.0296,-0.0255,-0.0257,-0.0226,-0.0219,-0.0192,-0.0187,-0.019,-0.0146,-0.016,-0.0159,-0.0134,-0.0131,-0.0129,-0.0104,-0.0177,0,0,0,0,0,-0.068,-0.063,-0.0548,-0.05,-0.0472,-0.0404,-0.037,-0.0334,-0.0286,-0.0267,-0.0235,-0.0211,-0.0186,-0.0171,-0.0149,-0.0123,-0.0122,-0.0111,-0.0109,-0.0106,-0.0085,-0.0077,-0.0071,-0.0136,-0.0136,-0.0136,0,0,-0.0687,-0.0628,-0.06,-0.0509,-0.046,-0.0398,-0.0383,-0.0329,-0.028,-0.0272,-0.0209,-0.0202,-0.0179,-0.0141,-0.013,-0.0134,-0.0092,-0.0106,-0.0104,-0.0083,-0.0076,-0.0069,-0.0063,-0.0135,-0.0135,-0.0136,0,0,-0.0662,-0.0624,-0.0567,-0.052,-0.0446,-0.0403,-0.0393,-0.0313,-0.0281,-0.0229,-0.0212,-0.0191,-0.015,-0.0117,-0.01,-0.0076,-0.0082,-0.0085,-0.0041,-0.0034,-0.0028,-0.0023,-0.0026,-0.0021,-0.0079,-0.0079,-0.0079,0,-0.0672,-0.0581,-0.0546,-0.048,-0.0431,-0.0407,-0.0339,-0.0301,-0.0227,-0.0193,-0.021,-0.0135,-0.0129,-0.0064,-0.0057,-0.0065,-0.0071,-0.0051,-0.0029,-0.0023,-0.0018,-0.0023,-0.0018,-0.0077,-0.0078,-0.0078,-0.0078,0,-0.059,-0.0529,-0.0496,-0.0401,-0.0358,-0.0299,-0.0245,-0.0208,-0.0185,-0.0143,-0.0089,-0.0077,-0.0028,-0.0035,-0.0034,0.0008,-0.0012,-0.0029,-0.0031,-0.0009,-0.0016,-0.0012,-0.0075,-0.0075,-0.0076,-0.0076,0,0,-0.0562,-0.0455,-0.044,-0.0385,-0.0308,-0.0254,-0.0194,-0.011,-0.0057,-0.003,0.0046,0.0066,0.006,0.0077,0.007,0.0074,0.0087,0.0038,0.0037,0.0044,0.0095,0.0082,0.0085,0.007,0.0071,0.0072,0.0072,0,-0.0496,-0.037,-0.0333,-0.0225,-0.0154,-0.0125,-0.0062,-0.0004,0.003,0.0097,0.0101,0.0154,0.0105,0.0125,0.0121,0.0104,0.0103,0.0089,0.0065,0.0064,0.0059,0.0092,0.0128,0.0131,0.0076,0.0077,0.0077,0,-0.0398,-0.033,-0.0211,-0.0114,-0.0081,-0.0026,0.0076,0.0133,0.02,0.0223,0.0257,0.0259,0.0285,0.0226,0.0211,0.0201,0.0155,0.0126,0.0125,0.011,0.0061,0.0102,0.0141,0.0082,0.0084,0.0083,0.0083,0,-0.0352,-0.0234,-0.0138,-0.0101,0.0002,0.0054,0.0103,0.0176,0.0237,0.0301,0.0346,0.0361,0.0377,0.0332,0.0262,0.024,0.0231,0.0192,0.014,0.0138,0.0166,0.0164,0.0159,0.0182,0.0182,0.0182,0.0182,0,-0.0263,-0.0181,-0.0112,-0.0054,0.0051,0.0098,0.0204,0.0252,0.0327,0.0407,0.0407,0.0463,0.04,0.0386,0.0307,0.0244,0.0264,0.0168,0.0148,0.0177,0.0176,0.0122,0.0066,0.0182,0.0182,0.0182,0.0182,0,-0.0192,-0.0144,-0.0037,0.0053,0.0084,0.0158,0.0261,0.0338,0.0389,0.0491,0.0518,0.0548,0.0527,0.0459,0.0389,0.0308,0.0213,0.0211,0.0244,0.0228,0.0122,0.0067,0.0058,0.0011,0.0168,0.0168,0.0168,0,-0.0124,-0.0068,0.0026,0.008,0.0127,0.0224,0.0298,0.0367,0.0444,0.0543,0.0604,0.0618,0.0638,0.0538,0.0415,0.0302,0.0217,0.0242,0.021,0.0142,0.0066,0.0042,0.0,0.0254,0.0254,0.0255,0.0255,0,-0.0021,-0.0007,0.0065,0.0156,0.0236,0.0333,0.0432,0.0496,0.0581,0.065,0.0726,0.0748,0.0679,0.0603,0.0454,0.0358,0.021,0.0247,0.0182,0.0147,0.0118,0.0055,0.0211,0.0259,0.0259,0.0259,0.0258,0.0258,0.0041,0.0093,0.0155,0.0245,0.0331,0.0428,0.0492,0.0584,0.0682,0.0775,0.0799,0.0835,0.0765,0.0579,0.044,0.0251,0.0218,0.0193,0.0135,0.012,0.0072,0.0231,0.0249,0.0249,0.0249,0.0248,0.0248,0,0.011,0.0156,0.0243,0.0338,0.0419,0.0455,0.0578,0.0626,0.0708,0.0806,0.0853,0.0884,0.0759,0.0603,0.0383,0.0201,0.0115,0.0094,0.0076,0.0036,0.0197,0.0198,0.0201,0.0201,0.0201,0.0202,0.0202,0.0202,0.0152,0.0229,0.0262,0.039,0.0451,0.0539,0.0593,0.0659,0.0733,0.0833,0.0895,0.0945,0.092,0.0537,0.0237,0.0124,-0.0028,-0.005,-0.0153,-0.0036,-0.003,-0.0025,-0.0035,-0.0081,-0.0081,-0.0262,-0.0264,-0.0265]}],[{"header":{"parameterUnit":"m.s-1","parameterCategory":2,"la1":30.2991,"la2":30.254,"lo1":-89.0895,"lo2":-89.0444,"dy":0.0017,"dx":0.0017,"nx":28,"ny":28,"refTime":"2025-02-01T03:00:00:Z","depth":"2","parameterNumber":2,"parameterNumberName":"U-component_of_CURRENTS"},"data":[0,0,0,0,0,0,0,0,0,0,0,0,0,0,0,0,0,0,0,0,0,0,0,0,0,0,0,0,0,0,0,0,0,0,0,0,0,0,0,0,0,0,0,0,0,0,0,0,0,0,0,0,0,0,0,0,0,0,0.138,0.138,0,0.1374,0.1374,0.1373,0.1352,0.1352,0.1352,0.1352,0.1323,0.1323,0.1322,0,0,0,0,0,0,0,0,0,0,0,0,0,0.1362,0.1362,0.138,0.138,0.138,0.1374,0.1374,0.1373,0.1352,0.1352,0.1352,0.1351,0.1324,0.1323,0.1322,0,0,0,0,0,0,0,0,0,0,0,0,0,0.1362,0.1362,0.138,0.1371,0.137,0.1374,0.1374,0.1373,0.1352,0.1352,0.1352,0.1351,0.1324,0.1323,0.1322,0.1325,0,0,0.132,0.1319,0,0,0,0,0,0,0,0,0.1362,0.1362,0.1372,0.1371,0.137,0.1366,0.1357,0.1357,0.1353,0.1357,0.1352,0.1351,0.1337,0.1335,0.1332,0.1324,0.1323,0.132,0.1319,0.1319,0.1319,0,0,0,0,0,0,0,0.1362,0.1362,0.1375,0.1372,0.1371,0.1363,0.1363,0.1357,0.1347,0.1356,0.1355,0.1359,0.1336,0.1333,0.1331,0.1322,0.132,0.1319,0.1319,0.1318,0.1323,0.1324,0,0,0,0,0,0,0.1368,0.1362,0.1375,0.1375,0.1368,0.1364,0.1363,0.1366,0.1347,0.1345,0.1359,0.1358,0.1334,0.1332,0.133,0.1332,0.1319,0.1318,0.1318,0.1323,0.1323,0.1324,0,0,0,0,0,0,0.1368,0.137,0.1375,0.137,0.1371,0.1365,0.1368,0.1366,0.1362,0.135,0.1347,0.1358,0.1334,0.1331,0.133,0.133,0.1318,0.1317,0.1322,0.1323,0.1324,0.1335,0,0,0,0,0,0,0.1368,0.1369,0.1374,0.1371,0.1372,0.1379,0.1368,0.1366,0.1366,0.1364,0.1348,0.1345,0.1333,0.1332,0.133,0.1329,0.1317,0.1321,0.1322,0.1324,0.1334,0.1336,0.1338,0,0,0,0,0,0.1367,0.1373,0.1374,0.1376,0.1378,0.1379,0.1378,0.1371,0.1367,0.1366,0.136,0.1346,0.1337,0.1332,0.1329,0.1328,0.1321,0.1322,0.1323,0.1333,0.1336,0.1338,0,0,0,0,0,0,0.1367,0.1372,0.1373,0.1381,0.1382,0.1376,0.1379,0.1374,0.1369,0.1367,0.1353,0.135,0.1352,0.1342,0.1336,0.1335,0.1327,0.1328,0.1335,0.1338,0.134,0.133,0.1316,0,0,0,0,0,0.1372,0.1378,0.138,0.1387,0.1389,0.1385,0.1385,0.1381,0.1377,0.1373,0.1363,0.1356,0.1356,0.1348,0.1347,0.1343,0.1361,0.1342,0.1344,0.1346,0.1338,0.1379,0.1384,0.1329,0.1329,0.1329,0,0,0.1374,0.1379,0.1382,0.1388,0.1388,0.1386,0.1383,0.1385,0.138,0.1372,0.1364,0.1366,0.1359,0.1358,0.1357,0.1347,0.1376,0.1348,0.1349,0.134,0.1381,0.1387,0.1392,0.1329,0.1329,0.1329,0,0,0.1375,0.1386,0.1387,0.1388,0.1393,0.1392,0.1394,0.139,0.1386,0.1385,0.1381,0.1386,0.1376,0.1372,0.1369,0.1384,0.1392,0.1382,0.1374,0.1415,0.142,0.1424,0.1473,0.1482,0.1375,0.1375,0.1375,0,0.1376,0.1375,0.1387,0.1386,0.1384,0.1394,0.1387,0.1389,0.1384,0.1386,0.1384,0.139,0.1383,0.1386,0.1384,0.1387,0.1414,0.1363,0.1418,0.1423,0.1427,0.1476,0.1485,0.1375,0.1375,0.1375,0.1375,0,0.1371,0.137,0.1372,0.1372,0.1376,0.1373,0.1379,0.1383,0.1385,0.1388,0.14,0.1401,0.1402,0.1403,0.139,0.1413,0.1426,0.1424,0.141,0.1433,0.1483,0.1493,0.1376,0.1376,0.1376,0.1376,0,0,0.1357,0.1365,0.1362,0.1358,0.1365,0.1365,0.137,0.1375,0.1386,0.139,0.1404,0.14,0.141,0.1407,0.1405,0.1426,0.1481,0.1427,0.1429,0.1474,0.1583,0.148,0.1481,0.149,0.1492,0.1493,0.1612,0,0.134,0.1333,0.1342,0.1332,0.1325,0.1341,0.1348,0.136,0.1376,0.1398,0.1412,0.1429,0.141,0.1418,0.1436,0.1475,0.1504,0.145,0.1554,0.1557,0.1462,0.1487,0.1288,0.1367,0.1621,0.1623,0.1624,0,0.1313,0.1315,0.13,0.1309,0.1309,0.1308,0.1327,0.1338,0.1378,0.1396,0.142,0.1442,0.147,0.1457,0.1532,0.15,0.1534,0.1564,0.157,0.147,0.1471,0.1382,0.1375,0.164,0.1639,0.1638,0.1637,0,0.1278,0.1278,0.1265,0.1265,0.1283,0.1282,0.1296,0.1331,0.1352,0.1401,0.1431,0.1472,0.1507,0.1551,0.1598,0.1575,0.1694,0.1679,0.1626,0.1621,0.1466,0.1444,0.1736,0.1736,0.1736,0.1736,0.1735,0,0.1242,0.123,0.1247,0.1239,0.1238,0.1259,0.1272,0.1299,0.1349,0.1388,0.1426,0.1469,0.1531,0.1599,0.163,0.1656,0.1728,0.1624,0.1638,0.1465,0.1442,0.1682,0.1674,0.174,0.1739,0.1738,0.1737,0,0.1198,0.1204,0.1195,0.1213,0.1217,0.1218,0.1256,0.1281,0.1327,0.1383,0.1403,0.1489,0.1574,0.1639,0.1735,0.1692,0.1736,0.173,0.1522,0.1505,0.1631,0.1623,0.1676,0.1674,0.1671,0.1669,0.1668,0,0.1173,0.1162,0.1176,0.118,0.1184,0.1195,0.1215,0.126,0.1294,0.1394,0.1424,0.1523,0.1554,0.1646,0.1598,0.1624,0.1739,0.1474,0.1366,0.1614,0.1623,0.1618,0.1613,0.1195,0.1189,0.1185,0.1181,0,0.1135,0.1141,0.1144,0.1154,0.1164,0.1181,0.1209,0.1227,0.1298,0.1341,0.1415,0.1442,0.1472,0.1383,0.1388,0.1375,0.144,0.138,0.172,0.1216,0.1162,0.117,0.118,0.1142,0.1146,0.1149,0.1151,0.1153,0.1113,0.1112,0.1122,0.1128,0.1146,0.1161,0.1159,0.1197,0.1228,0.1247,0.1331,0.1285,0.1238,0.1101,0.11,0.1085,0.117,0.1122,0.1136,0.1154,0.1052,0.0993,0.0925,0.0928,0.093,0.0932,0.0934,0,0.1083,0.1092,0.1101,0.1104,0.1109,0.1136,0.1157,0.1135,0.1143,0.1116,0.1123,0.0928,0.0835,0.0862,0.0722,0.0691,0.068,0.072,0.0703,0.0738,0.077,0.0651,0.0418,0.0417,0.0417,0.0417,0,0,0.1067,0.1057,0.1062,0.1056,0.1073,0.1068,0.107,0.1031,0.0983,0.0855,0.0762,0.0736,0.0735,0.0549,0.0519,0.0469,0.061,0.0438,0.083,0.084,0.0873,0.0957,0.0805,0,0,0,0,0]},{"header":{"parameterUnit":"m.s-1","parameterCategory":2,"la1":30.2991,"la2":30.254,"lo1":-89.0895,"lo2":-89.0444,"dy":0.0017,"dx":0.0017,"nx":28,"ny":28,"refTime":"2025-02-01T03:00:00:Z","depth":"2","parameterNumber":3,"parameterNumberName":"V-component_of_CURRENTS"},"data":[0,0,0,0,0,0,0,0,0,0,0,0,0,0,0,0,0,0,0,0,0,0,0,0,0,0,0,0,0,0,0,0,0,0,0,0,0,0,0,0,0,0,0,0,0,0,0,0,0,0,0,0,0,0,0,0,0,0,0.007,0.0069,0,0.005,0.005,0.005,0.0021,0.002,0.002,0.0019,0.0022,0.0023,0.0024,0,0,0,0,0,0,0,0,0,0,0,0,0,0.0112,0.0111,0.007,0.0069,0.0069,0.005,0.005,0.005,0.0021,0.002,0.002,0.0019,0.0022,0.0023,0.0024,0,0,0,0,0,0,0,0,0,0,0,0,0,0.0094,0.0111,0.007,0.0052,0.005,0.005,0.005,0.005,0.0021,0.002,0.002,0.0019,0.0022,0.0023,0.0024,0.0048,0,0,0.0027,0.0027,0,0,0,0,0,0,0,0,0.0095,0.0093,0.0055,0.0053,0.0051,0.0036,0.0066,0.005,0.0022,0.0033,0.0019,0.0018,0.0029,0.0029,0.0029,0.0049,0.0049,0.0027,0.0028,0.0028,0.0028,0,0,0,0,0,0,0,0.0096,0.0094,0.0063,0.0054,0.0052,0.0055,0.0051,0.0063,0.0038,0.0032,0.003,0.0026,0.0028,0.0028,0.0029,0.0049,0.0027,0.0028,0.0028,0.0029,0.0057,0.0057,0,0,0,0,0,0,0.0096,0.0095,0.0064,0.0062,0.007,0.0054,0.005,0.0043,0.0037,0.0035,0.0027,0.0025,0.0027,0.0028,0.0029,0.0045,0.0028,0.0029,0.003,0.0057,0.0057,0.0057,0,0,0,0,0,0,0.0097,0.0093,0.0065,0.0078,0.0074,0.0054,0.0046,0.0043,0.0037,0.0033,0.0031,0.0024,0.0026,0.0028,0.0038,0.0046,0.0029,0.003,0.0057,0.0057,0.0057,0.0086,0,0,0,0,0,0,0.0098,0.0094,0.0093,0.0077,0.0073,0.0069,0.0047,0.0043,0.0036,0.0033,0.003,0.003,0.0026,0.0036,0.0039,0.0047,0.0031,0.0057,0.0057,0.0057,0.0085,0.0088,0.009,0,0,0,0,0,0.01,0.0104,0.0093,0.009,0.0071,0.0069,0.0068,0.0051,0.0037,0.0042,0.0036,0.0029,0.0039,0.0038,0.0041,0.0049,0.0056,0.0057,0.0057,0.0084,0.0087,0.009,0,0,0,0,0,0,0.0128,0.0101,0.0089,0.0086,0.0078,0.0064,0.0067,0.0054,0.0052,0.0048,0.004,0.004,0.005,0.0046,0.0044,0.0056,0.0044,0.0045,0.0064,0.0067,0.0069,0.0069,0.0032,0,0,0,0,0,0.0133,0.0126,0.0105,0.0106,0.0101,0.0084,0.0081,0.0069,0.0062,0.006,0.0056,0.0052,0.0055,0.0057,0.006,0.0075,0.0056,0.0078,0.008,0.0082,0.0083,0.0059,0.0059,0.0058,0.0058,0.0058,0,0,0.0146,0.013,0.0127,0.0111,0.0103,0.0104,0.008,0.0077,0.008,0.0063,0.0071,0.0065,0.0061,0.0071,0.0075,0.0069,0.0072,0.0083,0.0085,0.0084,0.0059,0.0059,0.0059,0.0059,0.0059,0.0059,0,0,0.0168,0.0152,0.0152,0.0146,0.0131,0.0123,0.0122,0.0106,0.01,0.0107,0.0092,0.0089,0.0097,0.0092,0.0092,0.0109,0.0085,0.0107,0.0121,0.0097,0.0097,0.0096,0.0072,0.0069,0.0107,0.0107,0.0107,0,0.0184,0.0176,0.0156,0.0157,0.0155,0.0132,0.0137,0.0134,0.0126,0.0123,0.0113,0.0108,0.0107,0.0113,0.0115,0.0115,0.0094,0.0113,0.01,0.0099,0.0098,0.0073,0.0069,0.0109,0.0108,0.0108,0.0108,0,0.0202,0.0199,0.0202,0.0191,0.0192,0.0193,0.0182,0.0182,0.0169,0.0159,0.0158,0.0149,0.0142,0.0141,0.0136,0.013,0.0115,0.0107,0.0094,0.01,0.0073,0.0069,0.0111,0.011,0.011,0.0109,0,0,0.0221,0.0214,0.0213,0.0211,0.0206,0.0205,0.0217,0.0214,0.0212,0.0202,0.02,0.0198,0.0179,0.0176,0.0164,0.0145,0.0122,0.0124,0.0122,0.01,0.0064,0.0086,0.0083,0.0108,0.0107,0.0107,0.0047,0,0.0237,0.0241,0.0238,0.025,0.0248,0.0241,0.0253,0.0249,0.0241,0.0236,0.0217,0.0213,0.0197,0.0191,0.017,0.0138,0.0112,0.0139,0.006,0.0058,0.0078,0.008,0.0054,0.0002,0.0043,0.0042,0.0042,0,0.0244,0.0246,0.0256,0.0262,0.0261,0.0271,0.0274,0.0282,0.0275,0.0268,0.0256,0.0239,0.0222,0.02,0.0143,0.0158,0.0112,0.0081,0.0077,0.0085,0.0072,0.0002,-0.0008,0.0034,0.0035,0.0035,0.0036,0,0.0242,0.0255,0.0261,0.0262,0.0271,0.0277,0.0285,0.0286,0.0292,0.0286,0.0284,0.0257,0.0244,0.0188,0.014,0.0131,0.007,0.0049,0.0022,0.0022,-0.002,-0.0022,-0.0005,-0.0005,-0.0005,-0.0005,-0.0005,0,0.0243,0.0246,0.0259,0.0258,0.027,0.0279,0.0291,0.0295,0.0304,0.0316,0.0297,0.0304,0.0239,0.0204,0.0144,0.0084,0.0072,0.0025,0.0011,-0.001,-0.001,0.0003,0.0005,-0.0007,-0.0007,-0.0006,-0.0006,0,0.0223,0.0234,0.0237,0.0254,0.0263,0.0268,0.0295,0.0304,0.0315,0.0332,0.0333,0.0328,0.03,0.0237,0.0156,0.0097,0.0033,0.0009,-0.0004,-0.0018,-0.0009,-0.0005,-0.0042,-0.0042,-0.0041,-0.0041,-0.0041,0,0.0203,0.0205,0.0225,0.0237,0.0243,0.026,0.0276,0.0301,0.032,0.0356,0.0367,0.0357,0.0374,0.0276,0.0165,0.0065,0.0058,-0.0032,-0.0048,-0.0001,-0.0012,-0.0008,-0.0005,-0.0105,-0.0105,-0.0105,-0.0106,0,0.0171,0.018,0.0188,0.0216,0.0236,0.0265,0.0297,0.0321,0.0362,0.0403,0.0466,0.049,0.0397,0.0302,0.0166,0.0091,-0.0014,-0.0039,-0.0001,-0.0072,-0.006,-0.007,-0.0065,-0.0108,-0.0108,-0.0108,-0.0107,-0.0107,0.0144,0.015,0.0176,0.0205,0.0233,0.0288,0.0334,0.0389,0.0463,0.055,0.0551,0.0569,0.04,0.0231,0.0126,-0.0003,-0.0006,-0.0082,-0.0082,-0.0081,-0.0059,-0.0044,-0.0087,-0.0086,-0.0086,-0.0086,-0.0085,0,0.0131,0.0154,0.0173,0.0226,0.0271,0.0289,0.0365,0.0439,0.0562,0.0592,0.0672,0.05,0.0392,0.023,0.0027,-0.0081,-0.01,-0.0105,-0.0127,-0.0125,-0.0124,-0.0103,-0.0143,-0.0143,-0.0143,-0.0143,0,0,0.0128,0.0156,0.0181,0.0263,0.0305,0.0394,0.0456,0.0571,0.0616,0.0673,0.0641,0.0609,0.037,0.0205,0.0056,-0.0037,-0.0044,-0.0048,-0.0001,-0.0008,-0.0004,-0.012,-0.0087,0,0,0,0,0]}],[{"header":{"parameterUnit":"m.s-1","parameterCategory":2,"la1":30.2991,"la2":30.254,"lo1":-89.0895,"lo2":-89.0444,"dy":0.0017,"dx":0.0017,"nx":28,"ny":28,"refTime":"2025-02-01T03:00:00:Z","depth":"4","parameterNumber":2,"parameterNumberName":"U-component_of_CURRENTS"},"data":[0,0,0,0,0,0,0,0,0,0,0,0,0,0,0,0,0,0,0,0,0,0,0,0,0,0,0,0,0,0,0,0,0,0,0,0,0,0,0,0,0,0,0,0,0,0,0,0,0,0,0,0,0,0,0,0,0,0,0.0147,0.0147,0,0.017,0.017,0.0171,0.0206,0.0206,0.0206,0.0207,0.0233,0.0234,0.0234,0,0,0,0,0,0,0,0,0,0,0,0,0,0.0138,0.0138,0.0147,0.0147,0.0147,0.017,0.017,0.0171,0.0205,0.0206,0.0207,0.0207,0.0233,0.0233,0.0234,0,0,0,0,0,0,0,0,0,0,0,0,0,0.0151,0.0138,0.0147,0.0166,0.0168,0.017,0.017,0.0171,0.0205,0.0206,0.0207,0.0207,0.0233,0.0233,0.0234,0.0223,0,0,0.0235,0.0235,0,0,0,0,0,0,0,0,0.015,0.0152,0.0163,0.0165,0.0167,0.0184,0.0177,0.0188,0.0205,0.0193,0.0207,0.0208,0.0215,0.0217,0.0223,0.0224,0.0225,0.0235,0.0235,0.0236,0.0236,0,0,0,0,0,0,0,0.0149,0.0151,0.0158,0.0163,0.0165,0.0175,0.0177,0.0179,0.0202,0.0194,0.0196,0.0196,0.0217,0.0222,0.0223,0.0225,0.0235,0.0236,0.0236,0.0236,0.0256,0.0256,0,0,0,0,0,0,0.0142,0.015,0.0157,0.0158,0.0158,0.0174,0.0177,0.0179,0.0202,0.0205,0.0195,0.0197,0.0221,0.0223,0.0224,0.0264,0.0236,0.0236,0.0236,0.0255,0.0256,0.0256,0,0,0,0,0,0,0.0142,0.0142,0.0156,0.0153,0.0155,0.0173,0.0175,0.0179,0.0197,0.0202,0.0206,0.021,0.0222,0.0224,0.024,0.0264,0.0236,0.0237,0.0255,0.0255,0.0256,0.0311,0,0,0,0,0,0,0.0141,0.0142,0.0147,0.0153,0.0155,0.0166,0.0175,0.0179,0.0194,0.0197,0.0215,0.0218,0.0222,0.0239,0.024,0.0264,0.0237,0.0255,0.0255,0.0256,0.0309,0.0313,0.0317,0,0,0,0,0,0.0141,0.0138,0.0147,0.0149,0.016,0.0166,0.0169,0.0185,0.0194,0.0203,0.0218,0.0218,0.0243,0.024,0.0241,0.0265,0.0254,0.0255,0.0256,0.0307,0.0312,0.0317,0,0,0,0,0,0,0.0133,0.0141,0.0152,0.0152,0.0164,0.0171,0.0179,0.0189,0.0207,0.0219,0.0222,0.0226,0.0248,0.0242,0.0238,0.0269,0.0248,0.0249,0.0287,0.0292,0.0296,0.0306,0.0237,0,0,0,0,0,0.0133,0.0138,0.0148,0.015,0.0157,0.0171,0.0178,0.0193,0.0205,0.0215,0.0229,0.024,0.0248,0.0259,0.0263,0.0281,0.0262,0.0294,0.0299,0.0302,0.031,0.0287,0.029,0.0258,0.0258,0.0258,0,0,0.0133,0.0135,0.014,0.0149,0.0161,0.0173,0.0178,0.0196,0.0215,0.0214,0.0248,0.0255,0.0253,0.0278,0.0287,0.028,0.0302,0.0303,0.0307,0.0312,0.0288,0.0291,0.0294,0.0258,0.0258,0.0258,0,0,0.0126,0.0136,0.014,0.0151,0.0171,0.0182,0.0189,0.0212,0.0234,0.0264,0.0266,0.0283,0.0303,0.0307,0.031,0.0333,0.0321,0.0341,0.0379,0.0357,0.036,0.0362,0.0348,0.0349,0.0348,0.0348,0.0348,0,0.0124,0.0134,0.0142,0.015,0.0163,0.0186,0.0202,0.0222,0.0252,0.0268,0.0283,0.031,0.0315,0.0329,0.0353,0.0343,0.0336,0.0365,0.0364,0.0365,0.0366,0.0352,0.0351,0.0351,0.0351,0.035,0.035,0,0.0123,0.0139,0.0142,0.0163,0.0175,0.0195,0.0222,0.0249,0.0282,0.0303,0.0337,0.0349,0.0368,0.0373,0.0382,0.0397,0.0391,0.0368,0.0354,0.0373,0.0356,0.0355,0.0355,0.0354,0.0353,0.0352,0,0,0.0109,0.0138,0.0144,0.0157,0.0191,0.0198,0.0235,0.0269,0.0291,0.0335,0.036,0.0395,0.0415,0.0419,0.0426,0.0421,0.0434,0.042,0.0417,0.0412,0.0402,0.0382,0.0378,0.042,0.042,0.042,0.039,0,0.0115,0.013,0.0149,0.0175,0.0187,0.0221,0.0248,0.0281,0.0319,0.0349,0.0374,0.0406,0.0428,0.0454,0.0455,0.0437,0.0434,0.0446,0.0379,0.0377,0.0361,0.0376,0.042,0.0389,0.0388,0.0388,0.0388,0,0.0111,0.0126,0.0152,0.0183,0.0193,0.0219,0.0263,0.0294,0.0337,0.037,0.041,0.0432,0.0461,0.0465,0.0456,0.047,0.0454,0.043,0.0428,0.0389,0.0354,0.0362,0.0385,0.0385,0.0385,0.0386,0.0386,0,0.0087,0.0124,0.0146,0.0159,0.0199,0.0229,0.0263,0.0308,0.0337,0.0395,0.0416,0.045,0.0473,0.046,0.045,0.0463,0.041,0.0405,0.0363,0.0361,0.0364,0.0362,0.0382,0.0382,0.0382,0.0382,0.0382,0,0.0076,0.0095,0.0144,0.0156,0.0194,0.0227,0.0275,0.0313,0.036,0.0378,0.0439,0.0444,0.0476,0.0457,0.0442,0.0403,0.0403,0.0375,0.0352,0.0388,0.0389,0.0363,0.0362,0.0381,0.0381,0.0382,0.0382,0,0.0044,0.0076,0.0099,0.0156,0.0183,0.0213,0.0289,0.0309,0.0367,0.039,0.0414,0.045,0.0438,0.0434,0.0398,0.0389,0.0344,0.032,0.0364,0.0342,0.0317,0.0318,0.0291,0.029,0.0289,0.0289,0.0288,0,0.0028,0.0037,0.0096,0.0123,0.0161,0.0219,0.0251,0.0317,0.0328,0.0371,0.0359,0.0383,0.0397,0.0336,0.0334,0.0303,0.0293,0.0285,0.0317,0.0328,0.0308,0.0311,0.0313,0.0287,0.0286,0.0286,0.0286,0,-0.0001,0.0022,0.0044,0.0099,0.0143,0.0181,0.0231,0.0236,0.0285,0.0329,0.0325,0.0338,0.0314,0.0311,0.0293,0.0261,0.0306,0.0277,0.0279,0.0309,0.0322,0.0304,0.0307,0.0283,0.0284,0.0284,0.0284,0,-0.002,-0.0014,0.0019,0.0067,0.012,0.0142,0.0169,0.0189,0.0216,0.0263,0.0246,0.0265,0.0294,0.0283,0.0246,0.0242,0.025,0.0259,0.0263,0.0266,0.0273,0.0288,0.0222,0,0,0,0,0,-0.0035,-0.0032,-0.0009,0.0036,0.0085,0.0119,0.0151,0.0166,0.0199,0.0192,0.0232,0.0213,0.0221,0.022,0.0211,0.0216,0.0233,0.0204,0.0241,0.0268,0.0271,0.0283,0,0,0,0,0,0,-0.0047,-0.0031,-0.0029,0.0009,0.004,0.0081,0.0102,0.0115,0.0115,0.0157,0.0154,0.021,0.0202,0.0225,0.021,0.0211,0.0232,0.0222,0.0222,0.0266,0.0269,0.0271,0.0285,0,0,0,0,0]},{"header":{"parameterUnit":"m.s-1","parameterCategory":2,"la1":30.2991,"la2":30.254,"lo1":-89.0895,"lo2":-89.0444,"dy":0.0017,"dx":0.0017,"nx":28,"ny":28,"refTime":"2025-02-01T03:00:00:Z","depth":"4","parameterNumber":3,"parameterNumberName":"V-component_of_CURRENTS"},"data":[0,0,0,0,0,0,0,0,0,0,0,0,0,0,0,0,0,0,0,0,0,0,0,0,0,0,0,0,0,0,0,0,0,0,0,0,0,0,0,0,0,0,0,0,0,0,0,0,0,0,0,0,0,0,0,0,0,0,0.0071,0.0071,0,0.0061,0.0061,0.0061,0.0052,0.0052,0.0052,0.0052,0.0043,0.0043,0.0043,0,0,0,0,0,0,0,0,0,0,0,0,0,0.0069,0.0069,0.0071,0.0071,0.0071,0.0061,0.0061,0.0061,0.0052,0.0052,0.0052,0.0052,0.0043,0.0043,0.0043,0,0,0,0,0,0,0,0,0,0,0,0,0,0.0065,0.0069,0.0071,0.0066,0.0066,0.0061,0.0061,0.0061,0.0052,0.0052,0.0052,0.0052,0.0043,0.0043,0.0043,0.0042,0,0,0.0042,0.0041,0,0,0,0,0,0,0,0,0.0065,0.0065,0.0067,0.0066,0.0066,0.0059,0.0057,0.0055,0.0052,0.0057,0.0052,0.0052,0.0049,0.0048,0.0045,0.0041,0.0041,0.0042,0.0041,0.0041,0.0041,0,0,0,0,0,0,0,0.0066,0.0065,0.0067,0.0067,0.0066,0.006,0.0059,0.0056,0.0053,0.0056,0.0056,0.0056,0.0048,0.0046,0.0045,0.0041,0.0042,0.0041,0.0041,0.0041,0.0014,0.0014,0,0,0,0,0,0,0.0069,0.0066,0.0067,0.0066,0.0066,0.006,0.0059,0.006,0.0053,0.0052,0.0056,0.0055,0.0046,0.0045,0.0045,0.0013,0.0041,0.0041,0.0041,0.0015,0.0014,0.0013,0,0,0,0,0,0,0.0069,0.0069,0.0067,0.0066,0.0066,0.006,0.0061,0.006,0.0055,0.0052,0.0051,0.0052,0.0046,0.0045,0.0037,0.0014,0.0041,0.0041,0.0015,0.0014,0.0014,-0.0031,0,0,0,0,0,0,0.0069,0.0069,0.0069,0.0067,0.0066,0.0063,0.0062,0.006,0.0056,0.0055,0.0049,0.0048,0.0046,0.0037,0.0036,0.0014,0.004,0.0016,0.0015,0.0014,-0.0028,-0.0033,-0.0036,0,0,0,0,0,0.0069,0.007,0.0069,0.0069,0.0067,0.0063,0.0062,0.0058,0.0056,0.0053,0.0046,0.0048,0.003,0.0037,0.0036,0.0013,0.0016,0.0015,0.0014,-0.0027,-0.0032,-0.0036,0,0,0,0,0,0,0.0068,0.0069,0.0069,0.007,0.0066,0.0062,0.0059,0.0057,0.0049,0.0048,0.0044,0.0043,0.0025,0.003,0.0037,0.0003,0.0023,0.0021,-0.0008,-0.0013,-0.0017,-0.0021,0.004,0,0,0,0,0,0.0068,0.0071,0.0069,0.0069,0.0067,0.0063,0.006,0.0058,0.0052,0.0049,0.0041,0.0033,0.002,0.0013,0.0007,-0.0008,0.0003,-0.0023,-0.0027,-0.0031,-0.0034,-0.0038,-0.0043,0.0009,0.0009,0.001,0,0,0.0066,0.007,0.0069,0.0069,0.0066,0.0058,0.0061,0.0057,0.0045,0.0049,0.0029,0.0021,0.0014,-0.0009,-0.0016,-0.0008,-0.0038,-0.0032,-0.0035,-0.0037,-0.004,-0.0045,-0.0049,0.0009,0.0009,0.0009,0,0,0.0064,0.0068,0.0066,0.0063,0.006,0.0056,0.0055,0.0047,0.0037,0.0021,0.0014,-0.0005,-0.0019,-0.0036,-0.0045,-0.0072,-0.0058,-0.0075,-0.0103,-0.0106,-0.0111,-0.0114,-0.0101,-0.0103,-0.0078,-0.0079,-0.0079,0,0.0062,0.0059,0.0064,0.0059,0.0053,0.0054,0.0044,0.0034,0.0022,0.0011,0.0011,-0.0025,-0.0035,-0.0069,-0.0088,-0.0083,-0.0074,-0.0086,-0.0112,-0.0116,-0.0119,-0.0104,-0.0106,-0.0081,-0.0081,-0.008,-0.008,0,0.0053,0.0049,0.0048,0.0041,0.0036,0.003,0.0018,0.0007,-0.0004,-0.0015,-0.0046,-0.0064,-0.0084,-0.0098,-0.0107,-0.0141,-0.0123,-0.0116,-0.0101,-0.0127,-0.0109,-0.011,-0.0084,-0.0083,-0.0083,-0.0082,0,0,0.0051,0.0043,0.0041,0.0038,0.0026,0.0025,0.0,-0.0019,-0.0028,-0.0055,-0.0074,-0.0122,-0.0128,-0.0139,-0.0153,-0.0169,-0.0191,-0.016,-0.0159,-0.0148,-0.0187,-0.0183,-0.0183,-0.019,-0.0191,-0.0191,-0.0164,0,0.0041,0.0034,0.0026,0.0013,0.0009,-0.0002,-0.0019,-0.0036,-0.0051,-0.0067,-0.0099,-0.0118,-0.0144,-0.0154,-0.018,-0.0185,-0.0197,-0.0198,-0.0162,-0.016,-0.0156,-0.0186,-0.0193,-0.0164,-0.0164,-0.0165,-0.0165,0,0.003,0.003,0.0018,0.0009,0.0006,-0.0006,-0.0022,-0.0038,-0.0064,-0.0076,-0.0109,-0.0121,-0.0164,-0.0169,-0.0202,-0.0202,-0.0203,-0.0205,-0.0203,-0.0185,-0.0159,-0.0134,-0.0167,-0.0166,-0.0166,-0.0166,-0.0166,0,0.0036,0.0022,0.0017,0.0013,0.0002,-0.001,-0.0022,-0.0043,-0.0044,-0.0079,-0.0076,-0.0127,-0.0135,-0.0164,-0.0186,-0.0192,-0.0201,-0.0201,-0.0194,-0.0192,-0.0183,-0.0179,-0.0216,-0.0216,-0.0216,-0.0216,-0.0216,0,0.0033,0.0028,0.0021,0.0021,0.0019,0.0,-0.0004,-0.0023,-0.0035,-0.0031,-0.0077,-0.0083,-0.0135,-0.0147,-0.0175,-0.019,-0.0191,-0.0205,-0.0193,-0.0201,-0.0199,-0.0183,-0.018,-0.0215,-0.0215,-0.0215,-0.0216,0,0.0044,0.0035,0.0037,0.0027,0.0024,0.0024,0.0021,0.0026,0.0003,0.0009,0.0001,-0.0039,-0.0074,-0.0109,-0.0141,-0.016,-0.0181,-0.0179,-0.0173,-0.0159,-0.0169,-0.0168,-0.0175,-0.0175,-0.0175,-0.0174,-0.0174,0,0.0051,0.0053,0.0055,0.0063,0.0058,0.0058,0.0064,0.0046,0.0053,0.0035,0.0043,0.001,-0.0023,-0.0063,-0.0113,-0.0155,-0.0162,-0.0158,-0.0191,-0.0182,-0.0169,-0.0168,-0.0168,-0.0174,-0.0174,-0.0174,-0.0174,0,0.0071,0.0072,0.008,0.0096,0.0103,0.0115,0.0116,0.0121,0.0103,0.0102,0.0075,0.0034,0.0002,-0.0062,-0.0087,-0.0121,-0.0162,-0.0157,-0.0158,-0.0189,-0.0181,-0.0168,-0.0168,-0.0173,-0.0173,-0.0173,-0.0173,0,0.0094,0.0104,0.0114,0.0123,0.0144,0.0148,0.0145,0.0143,0.0142,0.0116,0.0109,0.005,0.002,-0.0042,-0.0071,-0.0105,-0.0121,-0.0127,-0.013,-0.0131,-0.0139,-0.0123,-0.0094,0,0,0,0,0,0.0114,0.0118,0.0136,0.0139,0.0164,0.0166,0.0174,0.0169,0.0155,0.0145,0.0123,0.0085,0.0015,-0.0023,-0.0057,-0.0073,-0.0125,-0.0112,-0.0133,-0.017,-0.0171,-0.0189,0,0,0,0,0,0,0.0124,0.0144,0.0138,0.0153,0.0157,0.0176,0.0176,0.0166,0.0152,0.0134,0.0093,0.0084,0.0012,0.0033,-0.0057,-0.0068,-0.0083,-0.0142,-0.0142,-0.017,-0.017,-0.0171,-0.019,0,0,0,0,0]}]]